04:04
Airports
History
Links
Donate
Help keep this website running!
PayPal
Bitcoin
This page is community maintained. The information is intended for PC simulator navigation or reference.
Always use approved charts for navigation.
EDCT
TAUCHA
TAUCHA (EDCT)
Taucha, Sachsen, Germany (4425)
(C)
Lat/Lng:51° 23' 40.8" N / 12° 32' 13.33" E
51.394667 / 12.537037
Elevation:492'ft / 150mMSL
ID / ICAO:EDCT
Runways:1
Longest:7-25
Grass 596m / 1,954ft
Controlled:Yes
Nearby Weather03:50 GMT 2018-02-23
Nearby weather at EDDP, Leipzig-Halle located 13.1 nautical miles from EDCT
Altimeter: 30.21
Visibility: 6.2 statute miles
Wind: 6 knots (from 030°)
Temp: -6°c / 21°f
Humidity: 92.6%

METAR: EDDP 230350Z 03006KT CAVOK M06/M07 Q1023 NOSIG

(Powered by phpweather)
Airport Radio Frequencies
INFO: 122.4
Nearby VORs <50NM
Nearby NDBs
Runway 7 / 25
Dimensions:595.5 x 50m 1954' x 164'ft
Surface:Grass
Runway 7 [A]Runway 25 [B]
Heading:070°TH 250°TH
Lat:
Lng:
51° 23' 37.49"N
12° 31' 58.69"E
51° 23' 44.11"N
12° 32' 27.98"E
User Notes and Comments
51° 23' 40.8" N / 12° 32' 13.33" E
Distance To
Airport ID:
Nearby Airports
(C) ROITZSCHJORA 12.7 NM
EDAW N 351°
(C) Leipzig-Halle 13.1 NM
EDDP ( WX ) W 278°
(C) BOEHLEN 14.4 NM
EDOE SSW 210°
(C) RENNERITZ 18.9 NM
EDOX NW 316°
(C) Halle-Oppin 23.5 NM
EDAQ WNW 297°
(C) OSCHATZ 24.3 NM
EDOQ ESE 106°
(U) MERSEBURG 25.8 NM
EDAM W 265°
VFR Chart
Flight Planning at SkyVector.com